Year,Month,Day,Hour,Minute,Value (Times are PST for temperature in C)
2020,06,30,00,00,16.80
2020,06,30,00,01,16.70
2020,06,30,00,02,16.70
2020,06,30,00,03,16.70
2020,06,30,00,04,16.70
2020,06,30,00,05,16.70
2020,06,30,00,06,16.70
2020,06,30,00,07,16.70
2020,06,30,00,08,16.70
2020,06,30,00,09,16.70
2020,06,30,00,10,16.70
2020,06,30,00,11,16.70
2020,06,30,00,12,16.70
2020,06,30,00,13,16.70
2020,06,30,00,14,16.70
2020,06,30,00,15,16.70
2020,06,30,00,16,16.70
2020,06,30,00,17,16.70
2020,06,30,00,18,16.80
2020,06,30,00,19,16.80
2020,06,30,00,20,16.80
2020,06,30,00,21,16.90
2020,06,30,00,22,16.90
2020,06,30,00,23,16.90
2020,06,30,00,24,17.00
2020,06,30,00,25,17.00
2020,06,30,00,26,17.00
2020,06,30,00,27,17.00
2020,06,30,00,28,17.10
2020,06,30,00,29,17.10
2020,06,30,00,30,17.10
2020,06,30,00,31,17.10
2020,06,30,00,32,17.10
2020,06,30,00,33,17.10
2020,06,30,00,34,17.10
2020,06,30,00,35,17.10
2020,06,30,00,36,17.10
2020,06,30,00,37,17.10
2020,06,30,00,38,17.00
2020,06,30,00,39,17.00
2020,06,30,00,40,17.00
2020,06,30,00,41,17.00
2020,06,30,00,42,16.90
2020,06,30,00,43,16.90
2020,06,30,00,44,16.90
2020,06,30,00,45,16.90
2020,06,30,00,46,16.80
2020,06,30,00,47,16.80
2020,06,30,00,48,16.80
2020,06,30,00,49,16.80
2020,06,30,00,50,16.70
2020,06,30,00,51,16.70
2020,06,30,00,52,16.70
2020,06,30,00,53,16.70
2020,06,30,00,54,16.70
2020,06,30,00,55,16.70
2020,06,30,00,56,16.60
2020,06,30,00,57,16.60
2020,06,30,00,58,16.60
2020,06,30,00,59,16.60
2020,06,30,01,00,16.60
2020,06,30,01,01,16.60
2020,06,30,01,02,16.50
2020,06,30,01,03,16.50
2020,06,30,01,04,16.50
2020,06,30,01,05,16.40
2020,06,30,01,06,16.40
2020,06,30,01,07,16.40
2020,06,30,01,08,16.40
2020,06,30,01,09,16.30
2020,06,30,01,10,16.30
2020,06,30,01,11,16.30
2020,06,30,01,12,16.30
2020,06,30,01,13,16.30
2020,06,30,01,14,16.20
2020,06,30,01,15,16.20
2020,06,30,01,16,16.20
2020,06,30,01,17,16.20
2020,06,30,01,18,16.20
2020,06,30,01,19,16.10
2020,06,30,01,20,16.10
2020,06,30,01,21,16.10
2020,06,30,01,22,16.10
2020,06,30,01,23,16.10
2020,06,30,01,24,16.10
2020,06,30,01,25,16.10
2020,06,30,01,26,16.10
2020,06,30,01,27,16.10
2020,06,30,01,28,16.20
2020,06,30,01,29,16.20
2020,06,30,01,30,16.20
2020,06,30,01,31,16.20
2020,06,30,01,32,16.20
2020,06,30,01,33,16.20
2020,06,30,01,34,16.20
2020,06,30,01,35,16.30
2020,06,30,01,36,16.30
2020,06,30,01,37,16.30
2020,06,30,01,38,16.30
2020,06,30,01,39,16.30
2020,06,30,01,40,16.30
2020,06,30,01,41,16.30
2020,06,30,01,42,16.20
2020,06,30,01,43,16.20
2020,06,30,01,44,16.20
2020,06,30,01,45,16.20
2020,06,30,01,46,16.20
2020,06,30,01,47,16.20
2020,06,30,01,48,16.20
2020,06,30,01,49,16.20
2020,06,30,01,50,16.10
2020,06,30,01,51,16.10
2020,06,30,01,52,16.10
2020,06,30,01,53,16.10
2020,06,30,01,54,16.10
2020,06,30,01,55,16.10
2020,06,30,01,56,16.10
2020,06,30,01,57,16.10
2020,06,30,01,58,16.10
2020,06,30,01,59,16.10
2020,06,30,02,00,16.10
2020,06,30,02,01,16.10
2020,06,30,02,02,16.10
2020,06,30,02,03,16.00
2020,06,30,02,04,16.00
2020,06,30,02,05,15.90
2020,06,30,02,06,15.90
2020,06,30,02,07,15.90
2020,06,30,02,08,15.80
2020,06,30,02,09,15.80
2020,06,30,02,10,15.80
2020,06,30,02,11,15.70
2020,06,30,02,12,15.70
2020,06,30,02,13,15.60
2020,06,30,02,14,15.60
2020,06,30,02,15,15.60
2020,06,30,02,16,15.60
2020,06,30,02,17,15.50
2020,06,30,02,18,15.50
2020,06,30,02,19,15.40
2020,06,30,02,20,15.40
2020,06,30,02,21,15.30
2020,06,30,02,22,15.30
2020,06,30,02,23,15.20
2020,06,30,02,24,15.20
2020,06,30,02,25,15.10
2020,06,30,02,26,15.10
2020,06,30,02,27,15.00
2020,06,30,02,28,15.00
2020,06,30,02,29,14.90
2020,06,30,02,30,14.90
2020,06,30,02,31,14.90
2020,06,30,02,32,14.90
2020,06,30,02,33,14.80
2020,06,30,02,34,14.80
2020,06,30,02,35,14.80
2020,06,30,02,36,14.80
2020,06,30,02,37,14.90
2020,06,30,02,38,14.90
2020,06,30,02,39,14.90
2020,06,30,02,40,14.80
2020,06,30,02,41,14.80
2020,06,30,02,42,14.80
2020,06,30,02,43,14.80
2020,06,30,02,44,14.80
2020,06,30,02,45,14.70
2020,06,30,02,46,14.70
2020,06,30,02,47,14.70
2020,06,30,02,48,14.70
2020,06,30,02,49,14.60
2020,06,30,02,50,14.60
2020,06,30,02,51,14.60
2020,06,30,02,52,14.50
2020,06,30,02,53,14.50
2020,06,30,02,54,14.50
2020,06,30,02,55,14.50
2020,06,30,02,56,14.40
2020,06,30,02,57,14.40
2020,06,30,02,58,14.40
2020,06,30,02,59,14.40
2020,06,30,03,00,14.30
2020,06,30,03,01,14.30
2020,06,30,03,02,14.30
2020,06,30,03,03,14.30
2020,06,30,03,04,14.30
2020,06,30,03,05,14.30
2020,06,30,03,06,14.20
2020,06,30,03,07,14.20
2020,06,30,03,08,14.20
2020,06,30,03,09,14.20
2020,06,30,03,10,14.20
2020,06,30,03,11,14.20
2020,06,30,03,12,14.20
2020,06,30,03,13,14.10
2020,06,30,03,14,14.10
2020,06,30,03,15,14.10
2020,06,30,03,16,14.10
2020,06,30,03,17,14.10
2020,06,30,03,18,14.10
2020,06,30,03,19,14.00
2020,06,30,03,20,14.00
2020,06,30,03,21,14.00
2020,06,30,03,22,14.00
2020,06,30,03,23,14.00
2020,06,30,03,24,14.00
2020,06,30,03,25,13.90
2020,06,30,03,26,13.90
2020,06,30,03,27,13.90
2020,06,30,03,28,13.90
2020,06,30,03,29,14.00
2020,06,30,03,30,14.00
2020,06,30,03,31,14.00
2020,06,30,03,32,14.00
2020,06,30,03,33,14.00
2020,06,30,03,34,14.00
2020,06,30,03,35,14.00
2020,06,30,03,36,14.00
2020,06,30,03,37,14.00
2020,06,30,03,38,14.00
2020,06,30,03,39,13.90
2020,06,30,03,40,13.90
2020,06,30,03,41,13.90
2020,06,30,03,42,13.90
2020,06,30,03,43,13.90
2020,06,30,03,44,13.90
2020,06,30,03,45,13.90
2020,06,30,03,46,13.90
2020,06,30,03,47,13.90
2020,06,30,03,48,13.90
2020,06,30,03,49,13.90
2020,06,30,03,50,13.90
2020,06,30,03,51,13.90
2020,06,30,03,52,13.90
2020,06,30,03,53,13.90
2020,06,30,03,54,13.90
2020,06,30,03,55,13.90
2020,06,30,03,56,13.90
2020,06,30,03,57,13.90
2020,06,30,03,58,13.90
2020,06,30,03,59,13.90
2020,06,30,04,00,13.90
2020,06,30,04,01,14.00
2020,06,30,04,02,14.00
2020,06,30,04,03,14.00
2020,06,30,04,04,14.00
2020,06,30,04,05,14.00
2020,06,30,04,06,14.00
2020,06,30,04,07,14.00
2020,06,30,04,08,14.00
2020,06,30,04,09,14.00
2020,06,30,04,10,14.00
2020,06,30,04,11,14.00
2020,06,30,04,12,14.00
2020,06,30,04,13,14.00
2020,06,30,04,14,14.00
2020,06,30,04,15,14.00
2020,06,30,04,16,14.00
2020,06,30,04,17,14.00
2020,06,30,04,18,14.00
2020,06,30,04,19,14.00
2020,06,30,04,20,14.00
2020,06,30,04,21,14.10
2020,06,30,04,22,14.10
2020,06,30,04,23,14.10
2020,06,30,04,24,14.10
2020,06,30,04,25,14.10
2020,06,30,04,26,14.10
2020,06,30,04,27,14.10
2020,06,30,04,28,14.10
2020,06,30,04,29,14.10
2020,06,30,04,30,14.00
2020,06,30,04,31,14.00
2020,06,30,04,32,14.00
2020,06,30,04,33,14.10
2020,06,30,04,34,14.10
2020,06,30,04,35,14.10
2020,06,30,04,36,14.20
2020,06,30,04,37,14.20
2020,06,30,04,38,14.30
2020,06,30,04,39,14.30
2020,06,30,04,40,14.30
2020,06,30,04,41,14.30
2020,06,30,04,42,14.30
2020,06,30,04,43,14.30
2020,06,30,04,44,14.30
2020,06,30,04,45,14.30
2020,06,30,04,46,14.30
2020,06,30,04,47,14.40
2020,06,30,04,48,14.40
2020,06,30,04,49,14.40
2020,06,30,04,50,14.40
2020,06,30,04,51,14.40
2020,06,30,04,52,14.40
2020,06,30,04,53,14.40
2020,06,30,04,54,14.40
2020,06,30,04,55,14.40
2020,06,30,04,56,14.40
2020,06,30,04,57,14.30
2020,06,30,04,58,14.30
2020,06,30,04,59,14.30
2020,06,30,05,00,14.30
2020,06,30,05,01,14.30
2020,06,30,05,02,14.30
2020,06,30,05,03,14.30
2020,06,30,05,04,14.30
2020,06,30,05,05,14.30
2020,06,30,05,06,14.30
2020,06,30,05,07,14.30
2020,06,30,05,08,14.30
2020,06,30,05,09,14.30
2020,06,30,05,10,14.30
2020,06,30,05,11,14.30
2020,06,30,05,12,14.30
2020,06,30,05,13,14.30
2020,06,30,05,14,14.30
2020,06,30,05,15,14.30
2020,06,30,05,16,14.30
2020,06,30,05,17,14.30
2020,06,30,05,18,14.30
2020,06,30,05,19,14.30
2020,06,30,05,20,14.30
2020,06,30,05,21,14.30
2020,06,30,05,22,14.30
2020,06,30,05,23,14.30
2020,06,30,05,24,14.30
2020,06,30,05,25,14.20
2020,06,30,05,26,14.20
2020,06,30,05,27,14.20
2020,06,30,05,28,14.20
2020,06,30,05,29,14.20
2020,06,30,05,30,14.20
2020,06,30,05,31,14.20
2020,06,30,05,32,14.20
2020,06,30,05,33,14.20
2020,06,30,05,34,14.20
2020,06,30,05,35,14.20
2020,06,30,05,36,14.20
2020,06,30,05,37,14.20
2020,06,30,05,38,14.20
2020,06,30,05,39,14.20
2020,06,30,05,40,14.20
2020,06,30,05,41,14.20
2020,06,30,05,42,14.20
2020,06,30,05,43,14.20
2020,06,30,05,44,14.20
2020,06,30,05,45,14.20
2020,06,30,05,46,14.20
2020,06,30,05,47,14.20
2020,06,30,05,48,14.20
2020,06,30,05,49,14.20
2020,06,30,05,50,14.30
2020,06,30,05,51,14.30
2020,06,30,05,52,14.20
2020,06,30,05,53,14.20
2020,06,30,05,54,14.30
2020,06,30,05,55,14.30
2020,06,30,05,56,14.30
2020,06,30,05,57,14.30
2020,06,30,05,58,14.30
2020,06,30,05,59,14.30
2020,06,30,06,00,14.30
2020,06,30,06,01,14.30
2020,06,30,06,02,14.20
2020,06,30,06,03,14.20
2020,06,30,06,04,14.20
2020,06,30,06,05,14.20
2020,06,30,06,06,14.20
2020,06,30,06,07,14.20
2020,06,30,06,08,14.20
2020,06,30,06,09,14.20
2020,06,30,06,10,14.20
2020,06,30,06,11,14.20
2020,06,30,06,12,14.20
2020,06,30,06,13,14.20
2020,06,30,06,14,14.30
2020,06,30,06,15,14.30
2020,06,30,06,16,14.30
2020,06,30,06,17,14.30
2020,06,30,06,18,14.30
2020,06,30,06,19,14.30
2020,06,30,06,20,14.30
2020,06,30,06,21,14.30
2020,06,30,06,22,14.30
2020,06,30,06,23,14.30
2020,06,30,06,24,14.40
2020,06,30,06,25,14.40
2020,06,30,06,26,14.40
2020,06,30,06,27,14.50
2020,06,30,06,28,14.50
2020,06,30,06,29,14.50
2020,06,30,06,30,14.50
2020,06,30,06,31,14.60
2020,06,30,06,32,14.60
2020,06,30,06,33,14.60
2020,06,30,06,34,14.70
2020,06,30,06,35,14.70
2020,06,30,06,36,14.70
2020,06,30,06,37,14.70
2020,06,30,06,38,14.70
2020,06,30,06,39,14.70
2020,06,30,06,40,14.80
2020,06,30,06,41,14.80
2020,06,30,06,42,14.80
2020,06,30,06,43,14.80
2020,06,30,06,44,14.80
2020,06,30,06,45,14.80
2020,06,30,06,46,14.80
2020,06,30,06,47,14.80
2020,06,30,06,48,14.80
2020,06,30,06,49,14.80
2020,06,30,06,50,14.80
2020,06,30,06,51,14.80
2020,06,30,06,52,14.80
2020,06,30,06,53,14.80
2020,06,30,06,54,14.80
2020,06,30,06,55,14.80
2020,06,30,06,56,14.80
2020,06,30,06,57,14.90
2020,06,30,06,58,14.90
2020,06,30,06,59,14.90
2020,06,30,07,00,14.90
2020,06,30,07,01,14.90
2020,06,30,07,02,14.90
2020,06,30,07,03,14.90
2020,06,30,07,04,14.90
2020,06,30,07,05,15.00
2020,06,30,07,06,15.00
2020,06,30,07,07,15.00
2020,06,30,07,08,15.00
2020,06,30,07,09,15.10
2020,06,30,07,10,15.10
2020,06,30,07,11,15.10
2020,06,30,07,12,15.10
2020,06,30,07,13,15.10
2020,06,30,07,14,15.10
2020,06,30,07,15,15.10
2020,06,30,07,16,15.10
2020,06,30,07,17,15.20
2020,06,30,07,18,15.20
2020,06,30,07,19,15.20
2020,06,30,07,20,15.20
2020,06,30,07,21,15.20
2020,06,30,07,22,15.20
2020,06,30,07,23,15.20
2020,06,30,07,24,15.30
2020,06,30,07,25,15.30
2020,06,30,07,26,15.30
2020,06,30,07,27,15.30
2020,06,30,07,28,15.30
2020,06,30,07,29,15.30
2020,06,30,07,30,15.30
2020,06,30,07,31,15.30
2020,06,30,07,32,15.40
2020,06,30,07,33,15.40
2020,06,30,07,34,15.40
2020,06,30,07,35,15.40
2020,06,30,07,36,15.40
2020,06,30,07,37,15.40
2020,06,30,07,38,15.40
2020,06,30,07,39,15.40
2020,06,30,07,40,15.30
2020,06,30,07,41,15.30
2020,06,30,07,42,15.40
2020,06,30,07,43,15.40
2020,06,30,07,44,15.40
2020,06,30,07,45,15.30
2020,06,30,07,46,15.30
2020,06,30,07,47,15.30
2020,06,30,07,48,15.30
2020,06,30,07,49,15.30
2020,06,30,07,50,15.30
2020,06,30,07,51,15.30
2020,06,30,07,52,15.30
2020,06,30,07,53,15.30
2020,06,30,07,54,15.30
2020,06,30,07,55,15.30
2020,06,30,07,56,15.30
2020,06,30,07,57,15.40
2020,06,30,07,58,15.40
2020,06,30,07,59,15.40
2020,06,30,08,00,15.50
2020,06,30,08,01,15.50
2020,06,30,08,02,15.50
2020,06,30,08,03,15.60
2020,06,30,08,04,15.60
2020,06,30,08,05,15.60
2020,06,30,08,06,15.60
2020,06,30,08,07,15.70
2020,06,30,08,08,15.70
2020,06,30,08,09,15.70
2020,06,30,08,10,15.80
2020,06,30,08,11,15.80
2020,06,30,08,12,15.90
2020,06,30,08,13,15.90
2020,06,30,08,14,16.00
2020,06,30,08,15,16.10
2020,06,30,08,16,16.20
2020,06,30,08,17,16.20
2020,06,30,08,18,16.30
2020,06,30,08,19,16.30
2020,06,30,08,20,16.40
2020,06,30,08,21,16.40
2020,06,30,08,22,16.50
2020,06,30,08,23,16.70
2020,06,30,08,24,16.80
2020,06,30,08,25,16.90
2020,06,30,08,26,16.90
2020,06,30,08,27,17.00
2020,06,30,08,28,17.10
2020,06,30,08,29,17.10
2020,06,30,08,30,17.10
2020,06,30,08,31,17.10
2020,06,30,08,32,17.10
2020,06,30,08,33,17.00
2020,06,30,08,34,17.00
2020,06,30,08,35,16.90
2020,06,30,08,36,16.90
2020,06,30,08,37,16.90
2020,06,30,08,38,16.90
2020,06,30,08,39,16.80
2020,06,30,08,40,16.80
2020,06,30,08,41,16.70
2020,06,30,08,42,16.60
2020,06,30,08,43,16.50
2020,06,30,08,44,16.40
2020,06,30,08,45,16.30
2020,06,30,08,46,16.30
2020,06,30,08,47,16.30
2020,06,30,08,48,16.30
2020,06,30,08,49,16.30
2020,06,30,08,50,16.20
2020,06,30,08,51,16.20
2020,06,30,08,52,16.20
2020,06,30,08,53,16.10
2020,06,30,08,54,16.10
2020,06,30,08,55,16.00
2020,06,30,08,56,16.00
2020,06,30,08,57,16.00
2020,06,30,08,58,16.00
2020,06,30,08,59,16.00
2020,06,30,09,00,16.00
2020,06,30,09,01,15.90
2020,06,30,09,02,15.90
2020,06,30,09,03,15.90
2020,06,30,09,04,15.90
2020,06,30,09,05,15.90
2020,06,30,09,06,16.00
2020,06,30,09,07,16.00
2020,06,30,09,08,16.10
2020,06,30,09,09,16.10
2020,06,30,09,10,16.20
2020,06,30,09,11,16.20
2020,06,30,09,12,16.20
2020,06,30,09,13,16.20
2020,06,30,09,14,16.20
2020,06,30,09,15,16.20
2020,06,30,09,16,16.20
2020,06,30,09,17,16.30
2020,06,30,09,18,16.30
2020,06,30,09,19,16.40
2020,06,30,09,20,16.50
2020,06,30,09,21,16.60
2020,06,30,09,22,16.80
2020,06,30,09,23,16.90
2020,06,30,09,24,16.90
2020,06,30,09,25,17.00
2020,06,30,09,26,17.10
2020,06,30,09,27,17.20
2020,06,30,09,28,17.30
2020,06,30,09,29,17.30
2020,06,30,09,30,17.40
2020,06,30,09,31,17.40
2020,06,30,09,32,17.40
2020,06,30,09,33,17.40
2020,06,30,09,34,17.40
2020,06,30,09,35,17.40
2020,06,30,09,36,17.40
2020,06,30,09,37,17.40
2020,06,30,09,38,17.40
2020,06,30,09,39,17.30
2020,06,30,09,40,17.30
2020,06,30,09,41,17.30
2020,06,30,09,42,17.30
2020,06,30,09,43,17.20
2020,06,30,09,44,17.20
2020,06,30,09,45,17.20
2020,06,30,09,46,17.20
2020,06,30,09,47,17.30
2020,06,30,09,48,17.20
2020,06,30,09,49,17.20
2020,06,30,09,50,17.20
2020,06,30,09,51,17.10
2020,06,30,09,52,17.00
2020,06,30,09,53,17.00
2020,06,30,09,54,16.90
2020,06,30,09,55,16.90
2020,06,30,09,56,16.90
2020,06,30,09,57,17.00
2020,06,30,09,58,17.10
2020,06,30,09,59,17.10
2020,06,30,10,00,17.20
2020,06,30,10,01,17.20
2020,06,30,10,02,17.30
2020,06,30,10,03,17.30
2020,06,30,10,04,17.30
2020,06,30,10,05,17.40
2020,06,30,10,06,17.40
2020,06,30,10,07,17.30
2020,06,30,10,08,17.30
2020,06,30,10,09,17.30
2020,06,30,10,10,17.20
2020,06,30,10,11,17.20
2020,06,30,10,12,17.20
2020,06,30,10,13,17.10
2020,06,30,10,14,17.00
2020,06,30,10,15,17.00
2020,06,30,10,16,17.00
2020,06,30,10,17,17.00
2020,06,30,10,18,17.00
2020,06,30,10,19,17.10
2020,06,30,10,20,17.00
2020,06,30,10,21,17.00
2020,06,30,10,22,16.90
2020,06,30,10,23,16.90
2020,06,30,10,24,16.90
2020,06,30,10,25,16.80
2020,06,30,10,26,16.70
2020,06,30,10,27,16.60
2020,06,30,10,28,16.60
2020,06,30,10,29,16.60
2020,06,30,10,30,16.50
2020,06,30,10,31,16.50
2020,06,30,10,32,16.50
2020,06,30,10,33,16.40
2020,06,30,10,34,16.40
2020,06,30,10,35,16.40
2020,06,30,10,36,16.40
2020,06,30,10,37,16.40
2020,06,30,10,38,16.40
2020,06,30,10,39,16.40
2020,06,30,10,40,16.40
2020,06,30,10,41,16.40
2020,06,30,10,42,16.40
2020,06,30,10,43,16.40
2020,06,30,10,44,16.50
2020,06,30,10,45,16.60
2020,06,30,10,46,16.70
2020,06,30,10,47,16.80
2020,06,30,10,48,16.80
2020,06,30,10,49,16.80
2020,06,30,10,50,16.80
2020,06,30,10,51,16.80
2020,06,30,10,52,16.70
2020,06,30,10,53,16.70
2020,06,30,10,54,16.70
2020,06,30,10,55,16.70
2020,06,30,10,56,16.80
2020,06,30,10,57,16.80
2020,06,30,10,58,16.80
2020,06,30,10,59,16.80
2020,06,30,11,00,16.80
2020,06,30,11,01,16.80
2020,06,30,11,02,16.80
2020,06,30,11,03,16.90
2020,06,30,11,04,16.90
2020,06,30,11,05,17.00
2020,06,30,11,06,17.00
2020,06,30,11,07,17.00
2020,06,30,11,08,17.00
2020,06,30,11,09,17.10
2020,06,30,11,10,17.10
2020,06,30,11,11,17.10
2020,06,30,11,12,17.00
2020,06,30,11,13,16.90
2020,06,30,11,14,16.90
2020,06,30,11,15,16.90
2020,06,30,11,16,16.90
2020,06,30,11,17,16.90
2020,06,30,11,18,17.00
2020,06,30,11,19,17.10
2020,06,30,11,20,17.10
2020,06,30,11,21,17.10
2020,06,30,11,22,17.10
2020,06,30,11,23,17.10
2020,06,30,11,24,17.10
2020,06,30,11,25,17.10
2020,06,30,11,26,17.10
2020,06,30,11,27,17.00
2020,06,30,11,28,16.90
2020,06,30,11,29,16.90
2020,06,30,11,30,16.80
2020,06,30,11,31,16.80
2020,06,30,11,32,16.80
2020,06,30,11,33,16.80
2020,06,30,11,34,16.80
2020,06,30,11,35,16.80
2020,06,30,11,36,16.80
2020,06,30,11,37,16.90
2020,06,30,11,38,16.90
2020,06,30,11,39,16.90
2020,06,30,11,40,16.90
2020,06,30,11,41,17.00
2020,06,30,11,42,17.00
2020,06,30,11,43,17.10
2020,06,30,11,44,17.10
2020,06,30,11,45,17.20
2020,06,30,11,46,17.30
2020,06,30,11,47,17.40
2020,06,30,11,48,17.40
2020,06,30,11,49,17.50
2020,06,30,11,50,17.50
2020,06,30,11,51,17.40
2020,06,30,11,52,17.30
2020,06,30,11,53,17.30
2020,06,30,11,54,17.20
2020,06,30,11,55,17.20
2020,06,30,11,56,17.20
2020,06,30,11,57,17.10
2020,06,30,11,58,17.10
2020,06,30,11,59,17.20
2020,06,30,12,00,17.20
2020,06,30,12,01,17.20
2020,06,30,12,02,17.10
2020,06,30,12,03,17.20
2020,06,30,12,04,17.10
2020,06,30,12,05,17.20
2020,06,30,12,06,17.20
2020,06,30,12,07,17.20
2020,06,30,12,08,17.20
2020,06,30,12,09,17.20
2020,06,30,12,10,17.20
2020,06,30,12,11,17.20
2020,06,30,12,12,17.30
2020,06,30,12,13,17.30
2020,06,30,12,14,17.30
2020,06,30,12,15,17.20
2020,06,30,12,16,17.20
2020,06,30,12,17,17.30
2020,06,30,12,18,17.30
2020,06,30,12,19,17.40
2020,06,30,12,20,17.40
2020,06,30,12,21,17.50
2020,06,30,12,22,17.50
2020,06,30,12,23,17.50
2020,06,30,12,24,17.50
2020,06,30,12,25,17.40
2020,06,30,12,26,17.40
2020,06,30,12,27,17.50
2020,06,30,12,28,17.50
2020,06,30,12,29,17.50
2020,06,30,12,30,17.40
2020,06,30,12,31,17.30
2020,06,30,12,32,17.30
2020,06,30,12,33,17.30
2020,06,30,12,34,17.40
2020,06,30,12,35,17.30
2020,06,30,12,36,17.30
2020,06,30,12,37,17.20
2020,06,30,12,38,17.20
2020,06,30,12,39,17.20
2020,06,30,12,40,17.20
2020,06,30,12,41,17.30
2020,06,30,12,42,17.40
2020,06,30,12,43,17.50
2020,06,30,12,44,17.50
2020,06,30,12,45,17.40
2020,06,30,12,46,17.50
2020,06,30,12,47,17.50
2020,06,30,12,48,17.50
2020,06,30,12,49,17.60
2020,06,30,12,50,17.60
2020,06,30,12,51,17.60
2020,06,30,12,52,17.70
2020,06,30,12,53,17.70
2020,06,30,12,54,17.70
2020,06,30,12,55,17.80
2020,06,30,12,56,17.90
2020,06,30,12,57,18.00
2020,06,30,12,58,17.90
2020,06,30,12,59,18.00
2020,06,30,13,00,18.00
2020,06,30,13,01,18.00
2020,06,30,13,02,18.00
2020,06,30,13,03,18.10
2020,06,30,13,04,18.10
2020,06,30,13,05,18.00
2020,06,30,13,06,17.90
2020,06,30,13,07,17.80
2020,06,30,13,08,17.80
2020,06,30,13,09,17.80
2020,06,30,13,10,17.80
2020,06,30,13,11,17.80
2020,06,30,13,12,17.80
2020,06,30,13,13,17.80
2020,06,30,13,14,17.80
2020,06,30,13,15,17.70
2020,06,30,13,16,17.70
2020,06,30,13,17,17.80
2020,06,30,13,18,17.80
2020,06,30,13,19,17.80
2020,06,30,13,20,17.80
2020,06,30,13,21,17.90
2020,06,30,13,22,18.00
2020,06,30,13,23,18.00
2020,06,30,13,24,18.00
2020,06,30,13,25,17.90
2020,06,30,13,26,18.00
2020,06,30,13,27,18.10
2020,06,30,13,28,18.20
2020,06,30,13,29,18.30
2020,06,30,13,30,18.40
2020,06,30,13,31,18.40
2020,06,30,13,32,18.50
2020,06,30,13,33,18.50
2020,06,30,13,34,18.50
2020,06,30,13,35,18.50
2020,06,30,13,36,18.50
2020,06,30,13,37,18.60
2020,06,30,13,38,18.60
2020,06,30,13,39,18.60
2020,06,30,13,40,18.70
2020,06,30,13,41,18.80
2020,06,30,13,42,18.80
2020,06,30,13,43,18.80
2020,06,30,13,44,18.70
2020,06,30,13,45,18.60
2020,06,30,13,46,18.60
2020,06,30,13,47,18.60
2020,06,30,13,48,18.60
2020,06,30,13,49,18.70
2020,06,30,13,50,18.80
2020,06,30,13,51,18.90
2020,06,30,13,52,19.10
2020,06,30,13,53,19.10
2020,06,30,13,54,19.20
2020,06,30,13,55,19.10
2020,06,30,13,56,19.10
2020,06,30,13,57,19.10
2020,06,30,13,58,19.10
2020,06,30,13,59,19.10
2020,06,30,14,00,19.10
2020,06,30,14,01,19.20
2020,06,30,14,02,19.20
2020,06,30,14,03,19.30
2020,06,30,14,04,19.40
2020,06,30,14,05,19.50
2020,06,30,14,06,19.50
2020,06,30,14,07,19.60
2020,06,30,14,08,19.60
2020,06,30,14,09,19.70
2020,06,30,14,10,19.70
2020,06,30,14,11,19.60
2020,06,30,14,12,19.40
2020,06,30,14,13,19.30
2020,06,30,14,14,19.30
2020,06,30,14,15,19.20
2020,06,30,14,16,19.20
2020,06,30,14,17,19.20
2020,06,30,14,18,19.20
2020,06,30,14,19,19.20
2020,06,30,14,20,19.30
2020,06,30,14,21,19.30
2020,06,30,14,22,19.40
2020,06,30,14,23,19.40
2020,06,30,14,24,19.40
2020,06,30,14,25,19.50
2020,06,30,14,26,19.50
2020,06,30,14,27,19.40
2020,06,30,14,28,19.40
2020,06,30,14,29,19.30
2020,06,30,14,30,19.20
2020,06,30,14,31,19.20
2020,06,30,14,32,19.20
2020,06,30,14,33,19.20
2020,06,30,14,34,19.30
2020,06,30,14,35,19.30
2020,06,30,14,36,19.30
2020,06,30,14,37,19.40
2020,06,30,14,38,19.40
2020,06,30,14,39,19.50
2020,06,30,14,40,19.50
2020,06,30,14,41,19.50
2020,06,30,14,42,19.40
2020,06,30,14,43,19.50
2020,06,30,14,44,19.60
2020,06,30,14,45,19.70
2020,06,30,14,46,19.80
2020,06,30,14,47,19.90
2020,06,30,14,48,20.10
2020,06,30,14,49,20.10
2020,06,30,14,50,20.00
2020,06,30,14,51,20.00
2020,06,30,14,52,20.00
2020,06,30,14,53,20.10
2020,06,30,14,54,20.10
2020,06,30,14,55,20.20
2020,06,30,14,56,20.20
2020,06,30,14,57,20.10
2020,06,30,14,58,20.20
2020,06,30,14,59,20.20
2020,06,30,15,00,20.20
2020,06,30,15,01,20.00
2020,06,30,15,02,20.00
2020,06,30,15,03,20.00
2020,06,30,15,04,20.10
2020,06,30,15,05,20.20
2020,06,30,15,06,20.30
2020,06,30,15,07,20.40
2020,06,30,15,08,20.40
2020,06,30,15,09,20.40
2020,06,30,15,10,20.40
2020,06,30,15,11,20.50
2020,06,30,15,12,20.50
2020,06,30,15,13,20.60
2020,06,30,15,14,20.70
2020,06,30,15,15,20.70
2020,06,30,15,16,20.70
2020,06,30,15,17,20.80
2020,06,30,15,18,20.80
2020,06,30,15,19,20.80
2020,06,30,15,20,20.90
2020,06,30,15,21,20.90
2020,06,30,15,22,20.90
2020,06,30,15,23,21.00
2020,06,30,15,24,21.00
2020,06,30,15,25,21.00
2020,06,30,15,26,21.00
2020,06,30,15,27,21.00
2020,06,30,15,28,20.90
2020,06,30,15,29,20.90
2020,06,30,15,30,20.80
2020,06,30,15,31,20.70
2020,06,30,15,32,20.70
2020,06,30,15,33,20.60
2020,06,30,15,34,20.50
2020,06,30,15,35,20.50
2020,06,30,15,36,20.40
2020,06,30,15,37,20.30
2020,06,30,15,38,20.20
2020,06,30,15,39,20.10
2020,06,30,15,40,20.00
2020,06,30,15,41,19.80
2020,06,30,15,42,19.70
2020,06,30,15,43,19.60
2020,06,30,15,44,19.50
2020,06,30,15,45,19.40
2020,06,30,15,46,19.40
2020,06,30,15,47,19.40
2020,06,30,15,48,19.40
2020,06,30,15,49,19.30
2020,06,30,15,50,19.30
2020,06,30,15,51,19.30
2020,06,30,15,52,19.30
2020,06,30,15,53,19.30
2020,06,30,15,54,19.30
2020,06,30,15,55,19.30
2020,06,30,15,56,19.30
2020,06,30,15,57,19.20
2020,06,30,15,58,19.20
2020,06,30,15,59,19.20
2020,06,30,16,00,19.20
2020,06,30,16,01,19.20
2020,06,30,16,02,19.30
2020,06,30,16,03,19.30
2020,06,30,16,04,19.40
2020,06,30,16,05,19.40
2020,06,30,16,06,19.50
2020,06,30,16,07,19.60
2020,06,30,16,08,19.70
2020,06,30,16,09,19.80
2020,06,30,16,10,19.90
2020,06,30,16,11,20.00
2020,06,30,16,12,20.00
2020,06,30,16,13,20.00
2020,06,30,16,14,19.90
2020,06,30,16,15,19.90
2020,06,30,16,16,19.90
2020,06,30,16,17,20.00
2020,06,30,16,18,20.10
2020,06,30,16,19,20.20
2020,06,30,16,20,20.20
2020,06,30,16,21,20.20
2020,06,30,16,22,20.10
2020,06,30,16,23,20.10
2020,06,30,16,24,20.20
2020,06,30,16,25,20.20
2020,06,30,16,26,20.20
2020,06,30,16,27,20.20
2020,06,30,16,28,20.30
2020,06,30,16,29,20.30
2020,06,30,16,30,20.30
2020,06,30,16,31,20.30
2020,06,30,16,32,20.30
2020,06,30,16,33,20.30
2020,06,30,16,34,20.30
2020,06,30,16,35,20.40
2020,06,30,16,36,20.50
2020,06,30,16,37,20.70
2020,06,30,16,38,20.80
2020,06,30,16,39,21.00
2020,06,30,16,40,21.10
2020,06,30,16,41,21.10
2020,06,30,16,42,21.10
2020,06,30,16,43,21.00
2020,06,30,16,44,20.80
2020,06,30,16,45,20.70
2020,06,30,16,46,20.70
2020,06,30,16,47,20.50
2020,06,30,16,48,20.50
2020,06,30,16,49,20.40
2020,06,30,16,50,20.50
2020,06,30,16,51,20.60
2020,06,30,16,52,20.70
2020,06,30,16,53,20.80
2020,06,30,16,54,20.80
2020,06,30,16,55,20.80
2020,06,30,16,56,20.80
2020,06,30,16,57,20.80
2020,06,30,16,58,20.70
2020,06,30,16,59,20.80
2020,06,30,17,00,20.80
2020,06,30,17,01,20.90
2020,06,30,17,02,20.90
2020,06,30,17,03,20.90
2020,06,30,17,04,20.90
2020,06,30,17,05,20.90
2020,06,30,17,06,20.80
2020,06,30,17,07,20.80
2020,06,30,17,08,20.70
2020,06,30,17,09,20.60
2020,06,30,17,10,20.60
2020,06,30,17,11,20.60
2020,06,30,17,12,20.60
2020,06,30,17,13,20.50
2020,06,30,17,14,20.50
2020,06,30,17,15,20.40
2020,06,30,17,16,20.40
2020,06,30,17,17,20.40
2020,06,30,17,18,20.40
2020,06,30,17,19,20.30